Location: LDNL
(36.4545°S, 141.6685°E)
Time: 17:44:14
(UTC+10:00)

Tiros 1 despin weight - Pass Details

Date: 01 February 2022
Orbit: 592 x 639 km, 48.2° (Epoch: 28 May)

Event Time Altitude Azimuth Distance (km) Brightness Sun altitude
Exits shadow 04:10:17 55° 193° (SSW) 757 ? -26.5°
Drops below altitude 10° 04:14:31 10° 132° (SE) 2,000 ? -26.0°
Sets 04:16:52 0° 127° (SE) 2,901 ? -25.7°
